Time,TemperatureF,DewpointF,PressureIn,WindDirection,WindDirectionDegrees,WindSpeedMPH,WindSpeedGustMPH,Humidity,HourlyPrecipIn,Conditions,Clouds,dailyrainin,SoftwareType,DateUTC
2013-05-15 00:04:00,53.8,51.0,30.01,SW,220,0.0,0.0,91,0.00,,,0.00,weatherlink.com 1.10,2013-05-15 07:04:00,
2013-05-15 00:19:00,53.8,51.0,30.00,SW,220,0.0,0.0,90,0.00,,,0.00,weatherlink.com 1.10,2013-05-15 07:19:00,
2013-05-15 00:34:00,53.8,51.0,30.00,SW,221,0.0,0.0,90,0.00,,,0.00,weatherlink.com 1.10,2013-05-15 07:34:00,
2013-05-15 00:49:00,54.0,51.0,30.00,ENE,74,2.0,2.0,90,0.00,,,0.00,weatherlink.com 1.10,2013-05-15 07:49:00,
2013-05-15 01:04:00,54.0,51.0,30.00,ENE,66,0.0,1.0,89,0.00,,,0.00,weatherlink.com 1.10,2013-05-15 08:04:00,
2013-05-15 01:19:00,54.2,51.0,30.00,NNE,22,0.0,2.0,89,0.00,,,0.00,weatherlink.com 1.10,2013-05-15 08:19:00,
2013-05-15 01:34:00,54.3,51.0,30.00,ENE,69,2.0,2.0,89,0.00,,,0.00,weatherlink.com 1.10,2013-05-15 08:34:00,
2013-05-15 01:49:00,54.1,51.0,30.00,East,93,0.0,2.0,89,0.00,,,0.00,weatherlink.com 1.10,2013-05-15 08:49:00,
2013-05-15 02:04:00,53.4,50.0,30.00,East,91,0.0,0.0,89,0.00,,,0.00,weatherlink.com 1.10,2013-05-15 09:04:00,
2013-05-15 02:19:00,52.8,50.0,30.00,East,91,0.0,0.0,90,0.00,,,0.00,weatherlink.com 1.10,2013-05-15 09:19:00,
2013-05-15 02:34:00,51.9,49.0,30.00,East,91,0.0,0.0,91,0.00,,,0.00,weatherlink.com 1.10,2013-05-15 09:34:00,
2013-05-15 02:49:00,51.8,50.0,30.00,East,91,0.0,0.0,92,0.00,,,0.00,weatherlink.com 1.10,2013-05-15 09:49:00,
2013-05-15 03:04:00,51.8,50.0,30.00,East,91,0.0,0.0,93,0.00,,,0.00,weatherlink.com 1.10,2013-05-15 10:04:00,
2013-05-15 03:19:00,52.2,50.0,30.00,East,91,0.0,1.0,92,0.00,,,0.00,weatherlink.com 1.10,2013-05-15 10:19:00,
2013-05-15 03:34:00,51.6,49.0,30.00,East,91,0.0,0.0,92,0.00,,,0.00,weatherlink.com 1.10,2013-05-15 10:34:00,
2013-05-15 03:49:00,51.2,49.0,30.00,East,91,0.0,0.0,93,0.00,,,0.00,weatherlink.com 1.10,2013-05-15 10:49:00,
2013-05-15 04:04:00,51.3,49.0,30.00,East,81,0.0,1.0,93,0.00,,,0.00,weatherlink.com 1.10,2013-05-15 11:04:00,
2013-05-15 04:35:00,51.1,49.0,30.00,East,79,0.0,0.0,92,0.00,,,0.00,weatherlink.com 1.10,2013-05-15 11:35:00,
2013-05-15 04:50:00,50.5,48.0,30.00,East,79,0.0,0.0,92,0.00,,,0.00,weatherlink.com 1.10,2013-05-15 11:50:00,
2013-05-15 05:05:00,50.9,49.0,30.01,ENE,73,0.0,1.0,92,0.00,,,0.00,weatherlink.com 1.10,2013-05-15 12:05:00,
2013-05-15 05:20:00,50.7,49.0,30.01,ENE,73,0.0,0.0,92,0.00,,,0.00,weatherlink.com 1.10,2013-05-15 12:20:00,
2013-05-15 05:35:00,50.0,48.0,30.01,ENE,73,0.0,0.0,92,0.00,,,0.00,weatherlink.com 1.10,2013-05-15 12:35:00,
2013-05-15 05:50:00,50.7,49.0,30.01,East,84,0.0,1.0,93,0.00,,,0.00,weatherlink.com 1.10,2013-05-15 12:50:00,
2013-05-15 06:20:00,51.1,49.0,30.02,ENE,74,0.0,1.0,92,0.00,,,0.00,weatherlink.com 1.10,2013-05-15 13:20:00,
2013-05-15 06:50:00,53.0,50.0,30.03,East,80,1.0,2.0,90,0.00,,,0.00,weatherlink.com 1.10,2013-05-15 13:50:00,
2013-05-15 07:20:00,55.5,52.0,30.04,ENE,70,0.0,1.0,88,0.00,,,0.00,weatherlink.com 1.10,2013-05-15 14:20:00,
2013-05-15 07:35:00,57.1,54.0,30.04,ESE,113,0.0,0.0,88,0.00,,,0.00,weatherlink.com 1.10,2013-05-15 14:35:00,
2013-05-15 08:05:00,59.0,55.0,30.05,West,259,0.0,2.0,87,0.00,,,0.00,weatherlink.com 1.10,2013-05-15 15:05:00,
2013-05-15 08:35:00,60.9,55.0,30.05,West,276,4.0,4.0,82,0.00,,,0.00,weatherlink.com 1.10,2013-05-15 15:35:00,
2013-05-15 08:50:00,62.4,56.0,30.05,West,261,3.0,5.0,79,0.00,,,0.00,weatherlink.com 1.10,2013-05-15 15:50:00,
2013-05-15 09:20:00,64.0,56.0,30.05,SSW,209,1.0,6.0,74,0.00,,,0.00,weatherlink.com 1.10,2013-05-15 16:20:00,
2013-05-15 09:35:00,64.7,56.0,30.05,ESE,102,0.0,8.0,73,0.00,,,0.00,weatherlink.com 1.10,2013-05-15 16:35:00,
2013-05-15 10:05:00,67.7,56.0,30.05,WSW,243,2.0,5.0,67,0.00,,,0.00,weatherlink.com 1.10,2013-05-15 17:05:00,
2013-05-15 10:20:00,67.0,56.0,30.04,West,261,6.0,8.0,69,0.00,,,0.00,weatherlink.com 1.10,2013-05-15 17:20:00,
2013-05-15 10:36:00,67.1,57.0,30.04,West,271,2.0,9.0,69,0.00,,,0.00,weatherlink.com 1.10,2013-05-15 17:36:00,
2013-05-15 10:51:00,68.3,56.0,30.04,West,276,1.0,8.0,66,0.00,,,0.00,weatherlink.com 1.10,2013-05-15 17:51:00,
2013-05-15 11:06:00,69.2,57.0,30.04,SW,234,4.0,8.0,65,0.00,,,0.00,weatherlink.com 1.10,2013-05-15 18:06:00,
2013-05-15 11:36:00,69.0,57.0,30.05,West,264,4.0,9.0,66,0.00,,,0.00,weatherlink.com 1.10,2013-05-15 18:36:00,
2013-05-15 11:51:00,69.6,57.0,30.05,WSW,258,5.0,9.0,64,0.00,,,0.00,weatherlink.com 1.10,2013-05-15 18:51:00,
2013-05-15 12:06:00,70.3,57.0,30.04,West,263,5.0,10.0,62,0.00,,,0.00,weatherlink.com 1.10,2013-05-15 19:06:00,
2013-05-15 12:21:00,70.2,57.0,30.04,SW,233,6.0,9.0,63,0.00,,,0.00,weatherlink.com 1.10,2013-05-15 19:21:00,
2013-05-15 12:36:00,70.2,56.0,30.04,WSW,258,2.0,10.0,62,0.00,,,0.00,weatherlink.com 1.10,2013-05-15 19:36:00,
2013-05-15 12:51:00,70.1,56.0,30.03,West,261,8.0,13.0,61,0.00,,,0.00,weatherlink.com 1.10,2013-05-15 19:51:00,
2013-05-15 13:06:00,70.0,57.0,30.03,WSW,239,6.0,11.0,63,0.00,,,0.00,weatherlink.com 1.10,2013-05-15 20:06:00,
2013-05-15 13:21:00,70.3,57.0,30.03,WSW,250,2.0,8.0,62,0.00,,,0.00,weatherlink.com 1.10,2013-05-15 20:21:00,
2013-05-15 13:36:00,69.9,57.0,30.03,SW,228,4.0,11.0,63,0.00,,,0.00,weatherlink.com 1.10,2013-05-15 20:36:00,
2013-05-15 13:51:00,69.5,57.0,30.03,SSW,213,2.0,14.0,64,0.00,,,0.00,weatherlink.com 1.10,2013-05-15 20:51:00,
2013-05-15 14:06:00,70.0,57.0,30.02,ESE,116,1.0,9.0,64,0.00,,,0.00,weatherlink.com 1.10,2013-05-15 21:06:00,
2013-05-15 14:21:00,70.0,56.0,30.02,WSW,250,6.0,12.0,62,0.00,,,0.00,weatherlink.com 1.10,2013-05-15 21:21:00,
2013-05-15 14:36:00,70.2,56.0,30.01,West,262,4.0,13.0,61,0.00,,,0.00,weatherlink.com 1.10,2013-05-15 21:36:00,
2013-05-15 14:51:00,69.4,56.0,30.01,SW,223,4.0,14.0,62,0.00,,,0.00,weatherlink.com 1.10,2013-05-15 21:51:00,
2013-05-15 15:06:00,69.9,56.0,30.01,SW,220,2.0,10.0,61,0.00,,,0.00,weatherlink.com 1.10,2013-05-15 22:06:00,
2013-05-15 15:21:00,69.2,55.0,30.01,West,262,8.0,11.0,62,0.00,,,0.00,weatherlink.com 1.10,2013-05-15 22:21:00,
2013-05-15 15:36:00,69.6,55.0,30.00,SSW,207,3.0,9.0,61,0.00,,,0.00,weatherlink.com 1.10,2013-05-15 22:36:00,
2013-05-15 16:06:00,68.9,55.0,29.99,WSW,246,6.0,9.0,62,0.00,,,0.00,weatherlink.com 1.10,2013-05-15 23:06:00,
2013-05-15 16:21:00,68.7,55.0,29.99,WSW,245,4.0,10.0,62,0.00,,,0.00,weatherlink.com 1.10,2013-05-15 23:21:00,
2013-05-15 16:36:00,69.7,55.0,29.99,WSW,238,4.0,8.0,59,0.00,,,0.00,weatherlink.com 1.10,2013-05-15 23:36:00,
2013-05-15 17:06:00,69.2,55.0,29.98,West,261,5.0,10.0,61,0.00,,,0.00,weatherlink.com 1.10,2013-05-16 00:06:00,
2013-05-15 17:21:00,69.1,55.0,29.98,WSW,237,2.0,8.0,61,0.00,,,0.00,weatherlink.com 1.10,2013-05-16 00:21:00,
2013-05-15 17:36:00,68.7,55.0,29.98,SW,226,2.0,8.0,61,0.00,,,0.00,weatherlink.com 1.10,2013-05-16 00:36:00,
2013-05-15 17:51:00,67.9,54.0,29.97,West,268,2.0,8.0,62,0.00,,,0.00,weatherlink.com 1.10,2013-05-16 00:51:00,
2013-05-15 18:06:00,68.0,54.0,29.97,SW,219,2.0,5.0,61,0.00,,,0.00,weatherlink.com 1.10,2013-05-16 01:06:00,
2013-05-15 18:21:00,67.3,54.0,29.96,WSW,246,2.0,7.0,63,0.00,,,0.00,weatherlink.com 1.10,2013-05-16 01:21:00,
2013-05-15 18:51:00,66.8,54.0,29.95,ESE,120,0.0,2.0,63,0.00,,,0.00,weatherlink.com 1.10,2013-05-16 01:51:00,
2013-05-15 19:06:00,66.5,52.0,29.95,WSW,240,2.0,3.0,61,0.00,,,0.00,weatherlink.com 1.10,2013-05-16 02:06:00,
2013-05-15 19:36:00,64.4,53.0,29.95,SW,231,0.0,2.0,67,0.00,,,0.00,weatherlink.com 1.10,2013-05-16 02:36:00,
2013-05-15 19:52:00,63.3,53.0,29.96,SSW,195,0.0,2.0,69,0.00,,,0.00,weatherlink.com 1.10,2013-05-16 02:52:00,
2013-05-15 20:07:00,62.2,53.0,29.96,SW,216,0.0,2.0,72,0.00,,,0.00,weatherlink.com 1.10,2013-05-16 03:07:00,
2013-05-15 20:22:00,60.1,53.0,29.96,WSW,240,0.0,1.0,77,0.00,,,0.00,weatherlink.com 1.10,2013-05-16 03:22:00,
2013-05-15 20:37:00,59.0,52.0,29.97,ESE,112,0.0,1.0,78,0.00,,,0.00,weatherlink.com 1.10,2013-05-16 03:37:00,
2013-05-15 20:52:00,58.1,52.0,29.97,South,186,0.0,1.0,81,0.00,,,0.00,weatherlink.com 1.10,2013-05-16 03:52:00,
2013-05-15 21:07:00,57.5,52.0,29.97,SSE,157,0.0,2.0,83,0.00,,,0.00,weatherlink.com 1.10,2013-05-16 04:07:00,
2013-05-15 21:22:00,57.0,53.0,29.97,South,188,0.0,1.0,85,0.00,,,0.00,weatherlink.com 1.10,2013-05-16 04:22:00,
2013-05-15 21:37:00,56.6,53.0,29.98,SSW,213,0.0,2.0,86,0.00,,,0.00,weatherlink.com 1.10,2013-05-16 04:37:00,
2013-05-15 21:52:00,56.3,52.0,29.98,South,171,0.0,0.0,86,0.00,,,0.00,weatherlink.com 1.10,2013-05-16 04:52:00,
2013-05-15 22:07:00,56.1,52.0,29.98,SW,226,0.0,1.0,87,0.00,,,0.00,weatherlink.com 1.10,2013-05-16 05:07:00,
2013-05-15 22:22:00,55.7,52.0,29.98,SW,226,0.0,0.0,87,0.00,,,0.00,weatherlink.com 1.10,2013-05-16 05:22:00,
2013-05-15 22:37:00,55.6,52.0,29.98,SW,226,0.0,0.0,88,0.00,,,0.00,weatherlink.com 1.10,2013-05-16 05:37:00,
2013-05-15 22:52:00,55.3,52.0,29.98,SW,226,0.0,0.0,89,0.00,,,0.00,weatherlink.com 1.10,2013-05-16 05:52:00,
2013-05-15 23:07:00,55.0,52.0,29.98,SW,226,0.0,1.0,90,0.00,,,0.00,weatherlink.com 1.10,2013-05-16 06:07:00,
2013-05-15 23:22:00,54.6,52.0,29.98,SW,226,0.0,0.0,91,0.00,,,0.00,weatherlink.com 1.10,2013-05-16 06:22:00,
2013-05-15 23:37:00,54.5,52.0,29.97,SW,226,0.0,0.0,92,0.00,,,0.00,weatherlink.com 1.10,2013-05-16 06:37:00,
2013-05-15 23:52:00,54.6,52.0,29.98,SW,226,0.0,0.0,92,0.00,,,0.00,weatherlink.com 1.10,2013-05-16 06:52:00,